Location: Newark
(52.3500°N, 175.9667°E)
Time: 18:30:22
(UTC+00:00)

A-11 Canister half - Visible Passes

Search period start: 19 April 2021 00:00
Search period end: 29 April 2021 00:00
Orbit: 1515 x 1685 km, 47.2° (Epoch: 18 April)

Date Brightness Start Highest point End Pass type
(mag) Time Alt. Az. Time Alt. Az. Time Alt. Az.
19 Apr 9.6 08:42:29 10° SSW 08:50:10 30° SE 08:58:04 10° E visible
19 Apr 9.0 10:44:30 10° WSW 10:53:41 57° SSE 11:03:13 10° E visible
19 Apr 8.9 12:48:33 10° W 12:58:02 65° S 13:07:52 10° ESE visible
19 Apr 9.3 14:53:06 10° W 15:02:10 45° SSW 15:11:29 10° SE visible
20 Apr 9.7 08:19:51 10° SSW 08:27:22 28° SE 08:35:03 10° E visible
20 Apr 9.0 10:21:41 10° SW 10:30:48 56° SSE 10:40:16 10° E visible
20 Apr 8.9 12:25:40 10° W 12:35:07 66° S 12:44:56 10° ESE visible
20 Apr 9.2 14:30:11 10° W 14:39:17 46° SSW 14:48:39 10° SE visible
21 Apr 9.7 07:57:14 10° S 08:04:33 27° SE 08:12:03 10° E visible
21 Apr 9.0 09:58:52 10° SW 10:07:56 54° SSE 10:17:20 10° E visible
21 Apr 8.9 12:02:47 10° W 12:12:13 66° S 12:22:00 10° ESE visible
21 Apr 9.2 14:07:17 10° W 14:16:25 48° SSW 14:25:49 10° SE visible
21 Apr 10.0 16:12:54 10° W 16:19:37 21° SW 16:26:27 10° S visible
22 Apr 9.1 09:36:04 10° SW 09:45:03 53° SSE 09:54:23 10° E visible
22 Apr 8.9 11:39:55 10° W 11:49:18 66° S 11:59:04 10° ESE visible
22 Apr 9.1 13:44:23 10° W 13:53:32 49° SSW 14:02:59 10° SE visible
22 Apr 9.9 15:49:51 10° W 15:56:48 22° SW 16:03:53 10° S visible
23 Apr 9.1 09:13:15 10° SW 09:22:11 51° SSE 09:31:26 10° E visible
23 Apr 8.9 11:17:02 10° W 11:26:24 66° S 11:36:08 10° ESE visible
23 Apr 9.1 13:21:30 10° W 13:30:39 51° SSW 13:40:07 10° SE visible
23 Apr 9.9 15:26:50 10° W 15:33:59 24° SW 15:41:17 10° S visible
24 Apr 9.2 08:50:28 10° SW 08:59:19 50° SSE 09:08:29 10° E visible
24 Apr 8.9 10:54:09 10° WSW 11:03:30 66° S 11:13:12 10° E visible
24 Apr 9.1 12:58:36 10° W 13:07:46 52° SSW 13:17:16 10° SE visible
24 Apr 9.8 15:03:49 10° W 15:11:10 25° SW 15:18:40 10° S visible
25 Apr 9.2 08:27:40 10° SW 08:36:28 48° SSE 08:45:33 10° E visible
25 Apr 8.9 10:31:17 10° WSW 10:40:36 66° S 10:50:16 10° E visible
25 Apr 9.1 12:35:42 10° W 12:44:53 53° SSW 12:54:23 10° SE visible
25 Apr 9.7 14:40:50 10° W 14:48:21 26° SW 14:56:03 10° S visible
26 Apr 9.3 08:04:54 10° SW 08:13:37 47° SSE 08:22:36 10° E visible
26 Apr 9.0 10:08:26 10° WSW 10:17:42 66° S 10:27:20 10° E visible
26 Apr 9.0 12:12:49 10° W 12:22:00 54° SSW 12:31:31 10° SE visible
26 Apr 9.7 14:17:51 10° W 14:25:31 27° SW 14:33:23 10° S visible
27 Apr 9.0 09:45:34 10° WSW 09:54:49 65° S 10:04:24 10° E visible
27 Apr 9.0 11:49:56 10° W 11:59:07 56° SSW 12:06:22 19° SE visible
27 Apr 9.7 13:54:52 10° W 14:02:41 29° SW 14:04:19 27° SSW visible
28 Apr 9.0 09:22:42 10° WSW 09:31:55 65° S 09:41:28 10° E visible
28 Apr 9.0 11:27:02 10° W 11:36:14 57° SSW 11:42:38 23° SE visible
28 Apr 9.6 13:31:55 10° W 13:39:51 30° SW 13:40:42 30° SSW visible
